EW7711 Weather Reports


time (UTC)temp
C
wind
direction
speed
KPH
gust
KPH
rain 1hr
cm
rain 24hr
cm
rain mn
cm
humidity
%
barometer
mb
20260502162818 17 299 14.5 25.7 0.00 0.00 0.00 33 1016.7
20260502161819 17 309 14.5 20.9 0.00 0.00 0.00 34 1016.7
20260502152018 15 295 11.3 16.1 0.00 0.00 0.00 38 1016.8
20260502151117 14 292 12.9 17.7 0.00 0.00 0.00 38 1016.6
20260502130417 7 247 8.0 11.3 0.00 0.00 0.00 55 1016.6
20260502123417 6 243 11.3 14.5 0.00 0.00 0.00 57 1016.4
20260502120418 5 247 6.4 8.0 0.00 0.00 0.00 57 1016.4
20260502115416 5 180 9.7 11.3 0.00 0.00 0.00 57 1016.4
20260502114416 6 180 8.0 9.7 0.00 0.00 0.00 55 1016.6
20260502112516 6 195 8.0 9.7 0.00 0.00 0.00 53 1016.8
20260502111616 6 182 11.3 14.5 0.00 0.00 0.00 53 1016.8
20260502110616 6 191 11.3 14.5 0.00 0.00 0.00 53 1016.9
20260502105634 6 238 9.7 12.9 0.00 0.00 0.00 54 1017.1
20260502104719 6 247 8.0 11.3 0.00 0.00 0.00 53 1017.3
20260502103816 6 226 11.3 19.3 0.00 0.00 0.00 53 1017.4
20260502102818 6 245 8.0 9.7 0.00 0.00 0.00 55 1017.4
20260502101917 6 243 11.3 14.5 0.00 0.00 0.00 53 1017.5
20260502091116 5 230 19.3 24.1 0.00 0.00 0.00 55 1018.1
20260502090118 5 180 14.5 22.5 0.00 0.00 0.00 57 1018.0
20260502071318 5 247 6.4 8.0 0.00 0.00 0.00 54 1019.1
20260502070316 5 247 6.4 8.0 0.00 0.00 0.00 55 1019.4
20260502065316 5 247 8.0 9.7 0.00 0.00 0.00 55 1019.5
20260502064317 4 180 9.7 11.3 0.00 0.00 0.00 55 1019.4
20260502063417 4 186 9.7 14.5 0.00 0.00 0.00 56 1019.2
20260502062417 4 180 6.4 9.7 0.00 0.00 0.00 55 1019.5
20260502060417 5 180 8.0 9.7 0.00 0.00 0.00 53 1019.8
20260502055429 5 180 8.0 9.7 0.00 0.00 0.00 51 1019.9
20260502054431 5 247 8.0 11.3 0.00 0.00 0.00 52 1019.9
20260502053431 5 247 8.0 9.7 0.00 0.00 0.00 50 1020.0
20260502052432 5 180 9.7 11.3 0.00 0.00 0.00 52 1020.1
20260502051431 5 180 8.0 8.0 0.00 0.00 0.00 52 1020.2
20260502050432 5 247 8.0 11.3 0.00 0.00 0.00 51 1020.3
20260502044430 6 247 8.0 9.7 0.00 0.00 0.00 50 1020.3
20260502043430 6 247 8.0 9.7 0.00 0.00 0.00 49 1020.3
20260502042529 6 247 8.0 11.3 0.00 0.00 0.00 50 1020.4
20260502041530 6 247 8.0 9.7 0.00 0.00 0.00 50 1020.5
20260502040529 6 180 4.8 6.4 0.00 0.00 0.00 49 1020.6
20260502035532 6 180 6.4 9.7 0.00 0.00 0.00 49 1020.7
20260502034531 7 180 6.4 9.7 0.00 0.00 0.00 47 1020.8
20260502030529 8 247 6.4 8.0 0.00 0.00 0.00 45 1020.9
20260502025530 8 247 4.8 8.0 0.00 0.00 0.00 44 1020.9
20260502024532 8 247 8.0 9.7 0.00 0.00 0.00 44 1020.9
20260502023531 9 247 4.8 6.4 0.00 0.00 0.00 43 1020.9
20260502022529 10 247 6.4 8.0 0.00 0.00 0.00 42 1020.8
20260502020545 11 247 6.4 8.0 0.00 0.00 0.00 39 1021.1
20260502015632 11 247 8.0 9.7 0.00 0.00 0.00 39 1020.9
20260502014730 12 180 8.0 8.0 0.00 0.00 0.00 40 1021.1
20260502012832 13 180 8.0 9.7 0.00 0.00 0.00 34 1021.0
20260502011929 15 180 9.7 11.3 0.00 0.00 0.00 33 1021.1
20260502010930 15 219 9.7 11.3 0.00 0.00 0.00 31 1021.2
20260502005929 16 180 9.7 11.3 0.00 0.00 0.00 29 1021.2
20260502003930 16 180 9.7 14.5 0.00 0.00 0.00 27 1021.3
20260502003030 16 180 11.3 16.1 0.00 0.00 0.00 26 1021.2
20260502002032 17 244 12.9 16.1 0.00 0.00 0.00 26 1021.3
20260502000032 17 180 3.2 6.4 0.00 0.00 0.00 26 1021.5
20260501234130 17 261 1.6 4.8 0.00 0.00 0.00 25 1021.4
20260501233229 16 259 8.0 11.3 0.00 0.00 0.00 24 1021.6
20260501232229 16 274 6.4 11.3 0.00 0.00 0.00 25 1021.8
20260501231229 17 196 6.4 12.9 0.00 0.00 0.00 24 1021.8
20260501230231 18 180 1.6 6.4 0.00 0.00 0.00 26 1021.9
20260501225231 17 220 4.8 8.0 0.00 0.00 0.00 26 1021.8
20260501224245 17 247 0.0 1.6 0.00 0.00 0.00 25 1021.9
20260501223331 17 247 3.2 6.4 0.00 0.00 0.00 26 1021.9
20260501220330 17 180 4.8 8.0 0.00 0.00 0.00 25 1022.0
20260501215331 17 212 4.8 11.3 0.00 0.00 0.00 25 1022.3
20260501213430 17 247 4.8 8.0 0.00 0.00 0.00 25 1022.3
20260501212445 17 182 4.8 8.0 0.00 0.00 0.00 26 1022.4
20260501211430 16 235 6.4 9.7 0.00 0.00 0.00 26 1022.5
20260501210529 17 125 4.8 11.3 0.00 0.00 0.00 25 1022.8
20260501205548 17 161 4.8 8.0 0.00 0.00 0.00 25 1022.8
20260501204546 16 138 4.8 8.0 0.00 0.00 0.00 27 1023.0
20260501203531 16 180 1.6 4.8 0.00 0.00 0.00 29 1023.0
20260501202630 16 215 3.2 9.7 0.00 0.00 0.00 27 1023.0
20260501194729 15 282 4.8 6.4 0.00 0.00 0.00 28 1023.3
20260501193729 15 268 4.8 6.4 0.00 0.00 0.00 28 1023.3
20260501192730 15 299 4.8 6.4 0.00 0.00 0.00 28 1023.0
20260501190731 16 180 8.0 9.7 0.00 0.00 0.00 27 1023.2
20260501185829 16 311 0.0 4.8 0.00 0.00 0.00 27 1023.2
20260501184829 15 8 1.6 6.4 0.00 0.00 0.00 28 1023.3
20260501182930 14 67 6.4 9.7 0.00 0.00 0.00 30 1023.3
20260501181932 15 67 9.7 12.9 0.00 0.00 0.00 30 1023.4
20260501180929 14 70 9.7 14.5 0.00 0.00 0.00 29 1023.6
20260501175930 15 247 4.8 9.7 0.00 0.00 0.00 29 1023.8
20260501174930 14 283 3.2 4.8 0.00 0.00 0.00 30 1023.8
20260501173931 15 218 1.6 4.8 0.00 0.00 0.00 30 1024.0
20260501173031 15 340 0.0 1.6 0.00 0.00 0.00 30 1023.9